Regional Weather Roundup
Issued by NWS

Home | Current Version | Previous Version | Graphics & Text | Print | Product List | Glossary On
Versions: 1 2 3 4 5 6 7 8 9 10 11 12 13 14 15 16 17 18 19 20 21 22 23 24 25 26 27 28 29 30 31 32 33 34 35 36 37 38 39 40 41 42 43 44 45 46 47 48 49 50
000
ASUS43 KMPX 180101
RWRMN
WEATHER ROUNDUP FOR MINNESOTA
NATIONAL WEATHER SERVICE TWIN CITIES/CHANHASSEN MN
800 PM CDT THU APR 17 2014


NOTE: "FAIR" INDICATES FEW OR NO CLOUDS BELOW 12,000 FEET WITH NO
SIGNIFICANT WEATHER AND/OR OBSTRUCTIONS TO VISIBILITY. N/A MEANS
CURRENT SKY AND/OR WEATHER CONDITIONS ARE NOT AVAILABLE.

MNZ060>063-068>070-180200-
   Twin Cities Metro

CITY           SKY/WX    TMP DP  RH WIND       PRES   REMARKS
TWIN CITIES    CLEAR     38  26  62 NW6       30.29S
ST PAUL        CLEAR     39  23  52 N6        30.30R
CRYSTAL        CLEAR     38  23  55 CALM      30.28S
BLAINE         CLEAR     39  27  60 CALM      30.28S
EDEN PRAIRIE   CLEAR     39  24  55 CALM      30.28R
LAKEVILLE      CLEAR     34  27  75 NW5       30.28R WCI  30
SOUTH ST PAUL  CLEAR     42  26  52 CALM      30.29R
LAKE ELMO      FAIR      37  28  70 CALM      30.29S
$$
MNZ001>005-007-008-013>017-022>024-027-028-180200-
   Northwest Minnesota

CITY           SKY/WX    TMP DP  RH WIND       PRES   REMARKS
BEMIDJI        PTCLDY    36   3  25 N5        30.24S
HALLOCK        CLOUDY    36  18  48 NW6       30.29S
ROSEAU         CLEAR     37  10  32 E6        30.28S
WARROAD        CLEAR     34   9  35 CALM      30.29S
THIEF RVR FALL MOCLDY    39  10  30 NW7       30.28S
CROOKSTON      MOCLDY    37  19  48 NW6       30.29S
FOSSTON        MOCLDY    36  14  41 NW3       30.27S
DETROIT LAKES  CLEAR     37  18  44 NW5       30.26S
MOORHEAD       CLEAR     41  16  36 NE3       30.28S
PARK RAPIDS    CLEAR     42   1  18 N3        30.23R
$$
MNZ006-009>011-018-025>026-180200-
   North Central Minnesota

CITY           SKY/WX    TMP DP  RH WIND       PRES   REMARKS
BAUDETTE       CLEAR     31  11  43 NW6       30.28R WCI  25
FLAG ISLAND    CLEAR     36   5  27 CALM      30.28R
INTL FALLS     CLEAR     33  20  58 E3        30.26R
WASKISH        CLEAR     36  16  44 CALM      30.26S
BIG FORK       CLEAR     36  19  51 E3        30.26S
LONGVILLE      CLEAR     36  19  51 CALM      30.24S
GRAND RAPIDS   CLEAR     36  18  48 E3        30.26R
CRANE LAKE     CLEAR     28  18  64 CALM      30.30R
ORR            CLEAR     30  18  59 CALM      30.25R
COOK           MOCLDY    32  19  59 CALM      30.28S
$$
MNZ012-019>021-037-180200-
   Northeast Minnesota

CITY           SKY/WX    TMP DP  RH WIND       PRES   REMARKS
DULUTH         PTCLDY    33  20  58 N6        30.26R WCI  28
ELY            CLOUDY    30  21  69 NW3       30.26R
HIBBING        CLOUDY    34  20  56 N6        30.27R WCI  29
EVELETH        CLOUDY    32  21  64 N5        30.28R WCI  27
DULUTH HARBOR  PTCLDY    37  23  56 CALM      30.30R
TWO HARBORS    CLOUDY    34  19  55 N6        30.25R WCI  29
SILVER BAY     CLEAR     32  25  74 N5        30.25R WCI  27
GRAND MARAIS     N/A     32  30  92 W3        30.26R
G MARAIS ARPRT CLOUDY    28  23  80 N7        30.21S WCI  21
$$
MNZ029>031-032-039>041-046>048-054>057-064-180200-
   West Central Minnesota

CITY           SKY/WX    TMP DP  RH WIND       PRES   REMARKS
FERGUS FALLS   CLEAR     37  16  41 W7        30.25R
WHEATON        CLEAR     43  25  49 CALM      30.29S
MORRIS         CLEAR     39  21  48 SW3       30.27S
ALEXANDRIA     CLEAR     38  17  42 SW5       30.26S
ELBOW LAKE     FAIR      37  22  55 W7        30.26S
WADENA         CLEAR     37  18  44 W6        30.24S
GLENWOOD       CLEAR     37  19  48 S3        30.27S
APPLETON       CLEAR     37  23  56 SW3       30.29S
BENSON         CLEAR     37  19  48 W3        30.29S
ORTONVILLE     CLEAR     36  19  51 S3        30.28F
MADISON        CLEAR     41  25  52 CALM      30.29S
WILLMAR        FAIR      37  21  52 CALM      30.30S
$$
MNZ033>034-036-042>043-049>051-058-059-180200-
   Central Minnesota

CITY           SKY/WX    TMP DP  RH WIND       PRES   REMARKS
ST CLOUD       CLEAR     37  22  54 CALM      30.27S
SAUK CENTRE    FAIR      35  21  55 SW5       30.28R WCI  31
PAYNESVILLE    CLEAR     36  21  55 CALM      30.29R
AITKIN         CLEAR     43  18  36 CALM      30.23R
PINE RIVER     CLEAR     39  16  38 NE3       30.27R
BRAINERD       CLEAR     45  15  30 CALM      30.25R
STAPLES        CLEAR     37  14  38 W6        30.24R
LONG PRAIRIE   FAIR      37  18  44 CALM      30.26S
LITTLE FALLS   CLEAR     37  21  52 S5        30.26S
LITCHFIELD     CLEAR     36  25  64 CALM      30.30R
BUFFALO        CLEAR     36  24  62 SW5       30.30R
MAPLE LAKE     CLEAR     37  26  64 W5        30.30R
$$
MNZ037-044-045-052-053-180200-
   East Central Minnesota

CITY           SKY/WX    TMP DP  RH WIND       PRES   REMARKS
PRINCETON      CLEAR     39  21  48 CALM      30.28S
MORA           CLEAR     36  23  60 SW3       30.28R
CAMBRIDGE      CLEAR     39  27  60 CALM      30.26S
RUSH CITY      CLEAR     36  24  60 SE3       30.28R
MOOSE LAKE     CLEAR     36  21  55 CALM      30.24S
HINCKLEY       FAIR      36  27  69 S3        30.27R
CLOQUET        CLEAR     36  19  51 N3        30.26R
MCGREGOR       CLOUDY    37  25  60 NE3       30.25R
$$
MNZ071>073-080-081-089-090-097-098-180200-
   Southwest Minnesota

CITY           SKY/WX    TMP DP  RH WIND       PRES   REMARKS
MONTEVIDEO     CLEAR     37  21  52 CALM      30.30F
GRANITE FALLS  CLEAR     34  23  63 SW5       30.31F WCI  30
CANBY          CLEAR     36  19  51 CALM      30.30F
MARSHALL       CLEAR     34  21  60 CALM      30.29F
REDWOOD FALLS  CLEAR     35  25  66 W3        30.30S
OLIVIA         CLEAR     32  27  80 SW5       30.29S WCI  27
PIPESTONE      PTCLDY    37  21  52 E5        30.26S
WINDOM         CLEAR     36  28  75 N5        30.29R
WORTHINGTON    MOCLDY    37  23  56 N7        30.29S
JACKSON        PTCLDY    39  30  70 N6        30.28S
TRACY          CLEAR     34  26  74 CALM      30.29F
SLAYTON        PTCLDY    35  26  72 CALM      30.28S
$$
MNZ065>067-074>077-082>085-091>093-180200-
   South Central Minnesota

CITY           SKY/WX    TMP DP  RH WIND       PRES   REMARKS
MANKATO        CLEAR     37  28  70 NW5       30.30R
NEW ULM        CLEAR     36  27  69 N5        30.30S
ST JAMES       CLEAR     39  28  65 N5        30.31S
FAIRMONT       CLEAR     39  28  65 NW5       30.30S
GLENCOE        CLEAR     38  26  61 NW5       30.29R
FARIBAULT      CLEAR     39  27  60 W5        30.29R
OWATONNA       CLEAR     36  28  75 CALM      30.28S
WASECA         CLEAR     37  32  81 W3        30.30R
ALBERT LEA     PTCLDY    36  30  80 CALM      30.28R
$$
MNZ078>079-086>088-094>096-180200-
   Southeast Minnesota

CITY           SKY/WX    TMP DP  RH WIND       PRES   REMARKS
ROCHESTER      CLOUDY    35  27  72 NE5       30.28S WCI  31
RED WING       CLEAR     39  28  65 CALM      30.28S
STANTON        CLEAR     39  29  67 CALM      30.27S
DODGE CENTER   PTCLDY    37  30  75 CALM      30.28S
WINONA         CLOUDY    37  30  75 NW5       30.30S
AUSTIN         CLOUDY    36  28  75 N3        30.28S
PRESTON        CLOUDY    36  29  76 N5        30.28S
$$
ABBREVIATIONS USED IN REMARKS
   TC - TEMPERATURES IN CELSIUS
  WCI - WIND CHILL INDEX
   HX - HEAT INDEX
  VSB - VISIBILITY
$$



USA.gov is the U.S. government's official web portal to all federal, state and local government web resources and services.